カタログに戻る

COSMOS 1275 DEB

運用中PO
NORAD 13490·DEBRIS·🇷🇺 Russia

打ち上げ Jun 4, 1981 から Plesetsk Cosmodrome

Loading…

次のパス (今後24時間)

TLE

最新Source: Space-Track

元期: Sep 14, 2026, 09:59 UTC

1 13490U 81053GL  26257.41600197  .00000258  00000-0  24035-3 0  9996
2 13490  82.8352  39.2681 0065068 200.7308 184.3783 13.77619502221461

AllMySatでCOSMOS 1275 DEBをリアルタイム追跡

Download on the App Store